Flag for United Kingdom Weather past 2 weeks in Stornoway, Scotland, United Kingdom

Now
41 °F

Passing clouds.


Feels Like: 34 °F
Forecast: 35 / 45 °F
Wind: 13 mph from Northwest

Location: Stornoway

Current Time: May 6, 2015 at 11:40:58 PM

Latest Report: May 6, 2015 at 11:20 PM


Visibility: N/A

Pressure: 29.65 "Hg

Humidity: 70%

Dew point: 32 °F

Location of StornowayLocation

Historic Weather in Stornoway — Graph

°F

Stornoway temperature yesterday

Maximum temperature yesterday: 55 °F (at 12:50 PM)
Minimum temperature yesterday: 45 °F (at 3:50 AM)
Average temperature yesterday: 48 °F

Past Weeks' High & Low Weather Summary

 TemperatureHumidityPressure
High55 °F (Apr 22, 1:20 PM)100% (Apr 22, 7:20 AM)30.63 "Hg (Apr 22, 7:20 AM)
Low28 °F (May 1, 2:50 AM)38% (May 2, 1:20 PM)29.12 "Hg (May 5, 8:20 PM)
Average44 °F74%29.73 "Hg
* Reported Apr 21 10:20 PM — May 6 10:20 PM, Stornoway, Weather by CustomWeather, © 2015

Note: Actual official high and low records may vary slightly from our data, if they occured in-between our weather recording intervals... More about our weather records

Advertising

Stornoway weather history for previous 24 hours

 ConditionsComfort  
Time TempWeatherWind HumidityBarometerVisibility
10:20 PM
Wed, May 6
41 °FPartly sunny.16 mph70%29.62 "HgN/A
9:50 PM41 °FPassing clouds.12 mph76%29.62 "HgN/A
9:20 PM41 °FScattered showers. Broken clouds.17 mph76%29.62 "HgN/A
8:50 PM41 °FScattered showers. Scattered clouds.17 mph76%29.59 "HgN/A
8:20 PM41 °FScattered showers. Scattered clouds.16 mph81%29.59 "HgN/A
7:50 PM41 °FScattered showers. Scattered clouds.20 mph81%29.56 "HgN/A
7:20 PM43 °FSprinkles. Scattered clouds.21 mph81%29.56 "HgN/A
6:50 PM41 °FSprinkles. Scattered clouds.20 mph81%29.53 "HgN/A
6:20 PM45 °FSprinkles. Scattered clouds.20 mph76%29.53 "HgN/A
5:50 PM46 °FSprinkles. Scattered clouds.22 mph76%29.50 "HgN/A
5:20 PM43 °FSprinkles. Broken clouds.22 mph81%29.50 "HgN/A
4:50 PM45 °FScattered showers. Scattered clouds.25 mph81%29.47 "HgN/A
4:20 PM46 °FScattered showers. Broken clouds.24 mph76%29.47 "HgN/A
3:50 PM46 °FScattered showers. Broken clouds.22 mph76%29.45 "HgN/A
3:20 PM48 °FLight rain. Broken clouds.24 mph76%29.45 "HgN/A
2:50 PM45 °FLight rain. Broken clouds.23 mph81%29.45 "HgN/A
2:20 PM46 °FLight rain. Broken clouds.24 mph82%29.42 "HgN/A
1:50 PM46 °FLight rain. Broken clouds.18 mph82%29.42 "HgN/A
1:20 PM46 °FLight rain. Broken clouds.17 mph82%29.39 "HgN/A
12:50 PM46 °FLight rain. Broken clouds.21 mph82%29.36 "HgN/A
12:20 PM46 °FLight rain. Broken clouds.24 mph76%29.36 "HgN/A
11:50 AM46 °FLight rain. Broken clouds.25 mph76%29.33 "HgN/A
11:20 AM45 °FLight rain. Broken clouds.20 mph81%29.33 "HgN/A
10:50 AM45 °FLight rain. Broken clouds.18 mph81%29.30 "HgN/A
10:20 AM46 °FLight rain. Broken clouds.15 mph76%29.30 "HgN/A
9:50 AM46 °FBroken clouds.16 mph82%29.27 "HgN/A
9:20 AM45 °FLight rain. Broken clouds.17 mph81%29.27 "Hg6 mi
8:50 AM45 °FLight rain. Broken clouds.17 mph81%29.27 "Hg5 mi
8:20 AM43 °FLight rain. Broken clouds.21 mph81%29.24 "Hg5 mi
7:50 AM45 °FLight rain. Broken clouds.22 mph81%29.24 "Hg5 mi
7:20 AM45 °FLight rain. Broken clouds.23 mph81%29.21 "Hg5 mi
6:50 AM46 °FLight rain. Broken clouds.20 mph82%29.21 "Hg5 mi
6:20 AM45 °FLight rain. Partly sunny.21 mph81%29.21 "Hg4 mi
5:50 AM45 °FLight rain. Passing clouds.23 mph81%29.18 "Hg4 mi
5:20 AM45 °FLight rain. Passing clouds.22 mph81%29.18 "Hg3 mi
4:50 AM45 °FLight rain. Passing clouds.24 mph81%29.18 "Hg4 mi
4:20 AM45 °FLight rain. Partly cloudy.24 mph81%29.18 "Hg3 mi
3:50 AM45 °FLight rain. Partly cloudy.22 mph81%29.18 "Hg2 mi
3:20 AM45 °FLight rain. Partly cloudy.24 mph81%29.15 "Hg2 mi
2:50 AM45 °FLight rain. Passing clouds.26 mph81%29.15 "Hg3 mi
2:20 AM45 °FLight rain. Partly cloudy.26 mph81%29.15 "Hg3 mi
1:50 AM45 °FLight rain. Passing clouds.26 mph87%29.15 "Hg3 mi
1:20 AM46 °FLight rain. Passing clouds.22 mph82%29.15 "Hg2 mi
12:50 AM46 °FLight rain. Passing clouds.23 mph82%29.15 "Hg2 mi
12:20 AM46 °FLight rain. Passing clouds.22 mph82%29.12 "Hg2 mi
11:50 PM
Tue, May 5
46 °FLight rain. Passing clouds.23 mph82%29.12 "Hg3 mi
11:20 PM46 °FLight rain. Partly cloudy.23 mph82%29.12 "Hg3 mi
Weather by CustomWeather, © 2015

See weather overviewHow to use our weather pages